Hourly Weather Bolshie Ovchinenki

Today, 20 June, Sunday

Time Temperature Precipitation Wind Pressure Humidity
00:00 +19°C° 0 mm 3 mps 749 mmHg 91%
01:00 +19°C° 0 mm 3 mps 749 mmHg 92%
02:00 +19°C° 0 mm 2 mps 749 mmHg 93%
03:00 +19°C° 0 mm 2 mps 749 mmHg 93%
04:00 +19°C° 0 mm 2 mps 749 mmHg 93%
05:00 +20°C° 0 mm 2 mps 749 mmHg 93%
06:00 +21°C° 0 mm 2 mps 749 mmHg 88%
07:00 +24°C° 0 mm 2 mps 749 mmHg 83%
08:00 +25°C° 0 mm 3 mps 749 mmHg 78%
09:00 +26°C° 0 mm 3 mps 749 mmHg 75%
10:00 +27°C° 0 mm 3 mps 749 mmHg 71%
11:00 +28°C° 0 mm 4 mps 749 mmHg 67%
12:00 +28°C° 0 mm 4 mps 749 mmHg 65%
13:00 +29°C° 0 mm 4 mps 749 mmHg 63%
14:00 +29°C° 0 mm 3 mps 748 mmHg 61%
15:00 +29°C° 0 mm 3 mps 748 mmHg 63%
16:00 +29°C° 0 mm 3 mps 748 mmHg 66%
17:00 +28°C° 0 mm 3 mps 748 mmHg 69%
18:00 +27°C° 0 mm 3 mps 747 mmHg 74%
19:00 +25°C° 0 mm 2 mps 747 mmHg 78%
20:00 +24°C° 0 mm 2 mps 747 mmHg 83%
21:00 +23°C° 0 mm 2 mps 747 mmHg 84%
22:00 +21°C° 0 mm 2 mps 747 mmHg 84%
23:00 +20°C° 0 mm 3 mps 747 mmHg 84%

Tomorrow, 21 June, Monday

Time Temperature Precipitation Wind Pressure Humidity
00:00 +20°C° 0 mm 3 mps 747 mmHg 84%
01:00 +19°C° 0 mm 3 mps 747 mmHg 84%
02:00 +19°C° 0 mm 3 mps 747 mmHg 83%
03:00 +19°C° 0 mm 3 mps 747 mmHg 86%
04:00 +19°C° 0 mm 3 mps 747 mmHg 88%
05:00 +19°C° 0 mm 3 mps 747 mmHg 90%
06:00 +20°C° 0 mm 3 mps 747 mmHg 85%
07:00 +22°C° 0 mm 4 mps 747 mmHg 80%
08:00 +23°C° 0 mm 4 mps 747 mmHg 75%
09:00 +25°C° 0 mm 4 mps 747 mmHg 70%
10:00 +26°C° 0 mm 5 mps 747 mmHg 66%
11:00 +27°C° 0 mm 5 mps 747 mmHg 61%
12:00 +27°C° 0 mm 5 mps 746 mmHg 60%
13:00 +28°C° 0 mm 5 mps 746 mmHg 58%
14:00 +29°C° 0 mm 5 mps 746 mmHg 57%
15:00 +29°C° 0 mm 5 mps 746 mmHg 61%
16:00 +29°C° 0 mm 5 mps 746 mmHg 64%
17:00 +28°C° 0 mm 4 mps 746 mmHg 68%
18:00 +27°C° 0 mm 4 mps 746 mmHg 74%
19:00 +26°C° 0 mm 4 mps 745 mmHg 80%
20:00 +24°C° 0 mm 3 mps 745 mmHg 86%
21:00 +22°C° 0 mm 3 mps 745 mmHg 88%
22:00 +22°C° 0 mm 3 mps 745 mmHg 90%
23:00 +21°C° 0 mm 3 mps 745 mmHg 92%

Day after tomorrow, 22 June, Tuesday

Time Temperature Precipitation Wind Pressure Humidity
00:00 +20°C° 0 mm 3 mps 745 mmHg 93%
01:00 +20°C° 0 mm 3 mps 745 mmHg 95%
02:00 +20°C° 0 mm 3 mps 745 mmHg 96%
03:00 +20°C° 0 mm 3 mps 745 mmHg 95%
04:00 +20°C° 0 mm 3 mps 745 mmHg 95%
05:00 +20°C° 0 mm 3 mps 745 mmHg 94%
06:00 +21°C° 0 mm 4 mps 745 mmHg 89%
07:00 +23°C° 0 mm 4 mps 746 mmHg 83%
08:00 +25°C° 0 mm 5 mps 746 mmHg 77%
09:00 +26°C° 0 mm 5 mps 746 mmHg 72%
10:00 +28°C° 0 mm 5 mps 746 mmHg 67%
11:00 +29°C° 0 mm 5 mps 746 mmHg 63%
12:00 +29°C° 0 mm 5 mps 746 mmHg 60%
13:00 +30°C° 0 mm 5 mps 746 mmHg 58%
14:00 +32°C° 0 mm 5 mps 746 mmHg 55%
15:00 +30°C° 0 mm 5 mps 746 mmHg 58%
16:00 +30°C° 0 mm 4 mps 745 mmHg 61%
17:00 +30°C° 0 mm 4 mps 745 mmHg 64%
18:00 +28°C° 0 mm 4 mps 745 mmHg 70%
19:00 +27°C° 0 mm 3 mps 746 mmHg 77%
20:00 +25°C° 0 mm 3 mps 746 mmHg 83%
21:00 +24°C° 0 mm 3 mps 746 mmHg 84%
22:00 +22°C° 0 mm 3 mps 746 mmHg 85%
23:00 +21°C° 0 mm 3 mps 746 mmHg 87%

23 June, Wednesday

Time Temperature Precipitation Wind Pressure Humidity
00:00 +20°C° 0 mm 3 mps 746 mmHg 89%
01:00 +20°C° 0 mm 3 mps 746 mmHg 91%
02:00 +19°C° 0 mm 3 mps 746 mmHg 93%
03:00 +20°C° 0 mm 3 mps 746 mmHg 93%
04:00 +20°C° 0 mm 3 mps 746 mmHg 93%
05:00 +20°C° 0 mm 2 mps 747 mmHg 93%
06:00 +22°C° 0 mm 3 mps 747 mmHg 88%
07:00 +25°C° 0 mm 3 mps 747 mmHg 82%
08:00 +27°C° 0 mm 4 mps 747 mmHg 77%
09:00 +28°C° 0 mm 4 mps 747 mmHg 72%
10:00 +29°C° 0 mm 4 mps 747 mmHg 68%
11:00 +30°C° 0 mm 5 mps 747 mmHg 63%
12:00 +32°C° 0 mm 5 mps 747 mmHg 60%
13:00 +33°C° 0 mm 5 mps 747 mmHg 57%
14:00 +33°C° 0 mm 4 mps 747 mmHg 54%
15:00 +33°C° 0 mm 4 mps 747 mmHg 57%
16:00 +33°C° 0 mm 4 mps 747 mmHg 61%
17:00 +32°C° 0 mm 4 mps 747 mmHg 65%
18:00 +30°C° 0 mm 4 mps 747 mmHg 71%
19:00 +28°C° 0 mm 3 mps 747 mmHg 76%
20:00 +26°C° 0 mm 3 mps 746 mmHg 82%
21:00 +25°C° 0 mm 3 mps 747 mmHg 84%
22:00 +25°C° 0 mm 3 mps 747 mmHg 86%
23:00 +24°C° 0 mm 3 mps 747 mmHg 88%

24 June, Thursday

Time Temperature Precipitation Wind Pressure Humidity
00:00 +22°C° 0 mm 3 mps 747 mmHg 90%
01:00 +22°C° 0 mm 3 mps 747 mmHg 92%
02:00 +21°C° 0 mm 3 mps 747 mmHg 94%
03:00 +21°C° 0 mm 3 mps 747 mmHg 94%
04:00 +21°C° 0 mm 2 mps 747 mmHg 94%
05:00 +21°C° 0 mm 2 mps 747 mmHg 93%
06:00 +24°C° 0 mm 3 mps 747 mmHg 87%
07:00 +26°C° 0 mm 3 mps 747 mmHg 81%
08:00 +27°C° 0 mm 3 mps 747 mmHg 75%
09:00 +29°C° 0 mm 4 mps 747 mmHg 70%
10:00 +30°C° 0 mm 4 mps 747 mmHg 64%
11:00 +32°C° 0 mm 4 mps 747 mmHg 59%
12:00 +32°C° 0 mm 4 mps 747 mmHg 57%
13:00 +32°C° 0 mm 4 mps 747 mmHg 55%
14:00 +33°C° 0 mm 4 mps 747 mmHg 53%
15:00 +33°C° 0 mm 4 mps 747 mmHg 56%
16:00 +33°C° 0 mm 4 mps 747 mmHg 59%
17:00 +31°C° 0 mm 3 mps 746 mmHg 62%
18:00 +30°C° 0 mm 3 mps 746 mmHg 68%
19:00 +28°C° 0 mm 3 mps 746 mmHg 74%
20:00 +27°C° 0 mm 2 mps 745 mmHg 79%
21:00 +26°C° 0 mm 2 mps 745 mmHg 81%
22:00 +25°C° 0 mm 2 mps 746 mmHg 82%
23:00 +24°C° 0 mm 2 mps 746 mmHg 83%

25 June, Friday

Time Temperature Precipitation Wind Pressure Humidity
00:00 +23°C° 0.4 mm 2 mps 745 mmHg 86%
01:00 +22°C° 0.4 mm 1 mps 745 mmHg 88%
02:00 +22°C° 0.4 mm 1 mps 745 mmHg 91%
03:00 +22°C° 0 mm 1 mps 745 mmHg 91%
04:00 +21°C° 0 mm 2 mps 745 mmHg 91%
05:00 +23°C° 0 mm 2 mps 745 mmHg 91%
06:00 +24°C° 0 mm 3 mps 745 mmHg 88%
07:00 +25°C° 0 mm 3 mps 745 mmHg 85%
08:00 +26°C° 0 mm 3 mps 745 mmHg 81%
09:00 +27°C° 0.4 mm 3 mps 745 mmHg 79%
10:00 +28°C° 0.4 mm 4 mps 745 mmHg 76%
11:00 +29°C° 0.4 mm 4 mps 744 mmHg 73%
12:00 +27°C° 0.7 mm 4 mps 745 mmHg 76%
13:00 +25°C° 0.7 mm 4 mps 745 mmHg 79%
14:00 +24°C° 0.7 mm 3 mps 745 mmHg 82%
15:00 +22°C° 0.9 mm 3 mps 745 mmHg 85%
16:00 +21°C° 0.9 mm 4 mps 744 mmHg 88%
17:00 +20°C° 0.9 mm 4 mps 744 mmHg 91%
18:00 +20°C° 0 mm 3 mps 744 mmHg 92%
19:00 +20°C° 0 mm 2 mps 744 mmHg 92%
20:00 +20°C° 0 mm 2 mps 743 mmHg 93%
21:00 +21°C° 0 mm 1 mps 743 mmHg 94%
22:00 +20°C° 0 mm 1 mps 744 mmHg 94%
23:00 +20°C° 0 mm 1 mps 744 mmHg 95%
Show more